KI4NG Weather Reports


Display with metric or nautical units.
time (UTC)temp
F
wind
direction
speed
MPH
gust
MPH
rain 1hr
in
rain 24hr
in
rain mn
in
humidity
%
barometer
mb
20260503202847 63 120 1.0 2.0 0.00 0.00 0.00 45 1018.2
20260503202345 62 214 3.0 5.0 0.00 0.00 0.00 45 1018.3
20260503201844 62 272 3.0 3.0 0.00 0.00 0.00 44 1018.3
20260503201340 62 274 6.0 8.0 0.00 0.00 0.00 43 1018.5
20260503200838 62 209 4.0 5.0 0.00 0.00 0.00 44 1018.7
20260503200333 61 132 1.0 1.0 0.00 0.00 0.00 46 1018.9
20260503195831 62 167 2.0 3.0 0.00 0.00 0.00 44 1018.8
20260503195327 62 202 5.0 9.0 0.00 0.00 0.00 44 1019.0
20260503194825 61 137 2.0 2.0 0.00 0.00 0.00 47 1019.0
20260503194320 62 187 6.0 7.0 0.00 0.00 0.00 44 1018.9
20260503193817 62 208 4.0 6.0 0.00 0.00 0.00 44 1019.2
20260503193313 61 150 1.0 2.0 0.00 0.00 0.00 50 1019.2
20260503192809 60 89 1.0 1.0 0.00 0.00 0.00 48 1019.4
20260503192305 62 204 6.0 7.0 0.00 0.00 0.00 45 1019.6
20260503191801 62 186 3.0 5.0 0.00 0.00 0.00 48 1019.6
20260503191258 62 86 2.0 2.0 0.00 0.00 0.00 46 1019.4
20260503190755 60 122 1.0 1.0 0.00 0.00 0.00 47 1019.6
20260503190251 61 172 2.0 3.0 0.00 0.00 0.00 49 1019.7
20260503185749 59 128 1.0 1.0 0.00 0.00 0.00 47 1019.8
20260503185244 60 193 3.0 3.0 0.00 0.00 0.00 51 1019.8
20260503184739 61 315 2.0 2.0 0.00 0.00 0.00 47 1020.0
20260503184236 59 143 2.0 3.0 0.00 0.00 0.00 51 1019.8
20260503183732 59 187 3.0 5.0 0.00 0.00 0.00 46 1020.0
20260503183229 60 144 2.0 2.0 0.00 0.00 0.00 51 1020.1
20260503182727 59 168 3.0 5.0 0.00 0.00 0.00 45 1020.2
20260503182226 59 75 3.0 3.0 0.00 0.00 0.00 48 1020.4
20260503181722 59 76 2.0 3.0 0.00 0.00 0.00 47 1020.6
20260503181219 59 91 1.0 2.0 0.00 0.00 0.00 49 1020.2
20260503180715 59 203 2.0 2.0 0.00 0.00 0.00 48 1020.6
20260503180214 58 184 5.0 6.0 0.00 0.00 0.00 49 1020.6
20260503175710 59 70 2.0 2.0 0.00 0.00 0.00 49 1020.2
20260503175208 57 111 4.0 5.0 0.00 0.00 0.00 50 1020.7
20260503174704 57 156 4.0 6.0 0.00 0.00 0.00 50 1020.7
20260503174202 57 75 3.0 3.0 0.00 0.00 0.00 49 1020.8
20260503173657 58 260 11.0 11.0 0.00 0.00 0.00 47 1020.6
20260503173153 56 127 2.0 2.0 0.00 0.00 0.00 49 1020.9
20260503172650 57 210 2.0 2.0 0.00 0.00 0.00 51 1020.8
20260503172147 57 193 3.0 3.0 0.00 0.00 0.00 49 1020.9
20260503171644 56 213 5.0 6.0 0.00 0.00 0.00 49 1021.1
20260503171141 56 184 3.0 3.0 0.00 0.00 0.00 53 1021.1
20260503170638 56 136 2.0 3.0 0.00 0.00 0.00 47 1021.2
20260503170135 55 203 4.0 6.0 0.00 0.00 0.00 58 1021.3
20260503150526 52 172 3.0 3.0 0.00 0.00 0.00 56 1022.1
20260503131420 46 147 2.0 2.0 0.00 0.00 0.00 81 1022.1
20260503130916 44 134 3.0 3.0 0.00 0.00 0.00 83 1022.0
20260503130414 44 131 4.0 5.0 0.00 0.00 0.00 83 1022.2
20260503110818 35 148 0.0 0.0 0.00 0.00 0.00 99 1020.9
20260503110315 35 148 0.0 0.0 0.00 0.00 0.00 99 1020.8
20260503100241 37 148 0.0 0.0 0.00 0.00 0.00 99 1020.3
20260503090200 37 135 0.0 0.0 0.00 0.00 0.00 99 1020.0
20260503081630 37 139 0.0 0.0 0.00 0.00 0.00 99 1020.0
20260503081127 37 140 0.0 0.0 0.00 0.00 0.00 99 1020.0
20260503080623 36 139 0.0 0.0 0.00 0.00 0.00 99 1019.8
20260503080120 36 139 0.0 0.0 0.00 0.00 0.00 99 1019.8
20260503072557 38 140 0.0 0.0 0.00 0.00 0.00 99 1019.5
20260503072054 38 140 0.0 0.0 0.00 0.00 0.00 99 1019.4
20260503071551 38 140 0.0 0.0 0.00 0.00 0.00 99 1019.3
20260503071048 38 140 0.0 0.0 0.00 0.00 0.00 99 1019.2
20260503070544 38 139 0.0 0.0 0.00 0.00 0.00 99 1019.3
20260503054957 39 140 0.0 0.0 0.00 0.00 0.00 98 1019.2
20260503054453 39 139 0.0 0.0 0.00 0.00 0.00 97 1019.3
20260503053951 40 139 0.0 0.0 0.00 0.00 0.00 97 1019.3
20260503053449 40 140 0.0 0.0 0.00 0.00 0.00 97 1019.3
20260503052945 40 139 0.0 0.0 0.00 0.00 0.00 96 1019.1
20260503052443 40 139 0.0 0.0 0.00 0.00 0.00 96 1019.3
20260503051939 41 138 0.0 0.0 0.00 0.00 0.00 96 1019.3
20260503051435 41 137 0.0 0.0 0.00 0.00 0.00 96 1019.2
20260503050932 41 141 0.0 0.0 0.00 0.00 0.00 96 1019.3
20260503050428 41 146 0.0 0.0 0.00 0.00 0.00 96 1019.2
20260503045926 40 138 0.0 0.0 0.00 0.00 0.00 96 1019.2
20260503045423 41 138 0.0 0.0 0.00 0.00 0.00 96 1019.1
20260503044920 41 138 0.0 0.0 0.00 0.00 0.00 95 1019.0
20260503044417 41 138 0.0 0.0 0.00 0.00 0.00 94 1019.1
20260503043914 41 139 0.0 0.0 0.00 0.00 0.00 94 1019.1
20260503043411 42 139 0.0 0.0 0.00 0.00 0.00 94 1019.1
20260503042907 42 144 0.0 0.0 0.00 0.00 0.00 93 1019.1
20260503042404 42 142 0.0 0.0 0.00 0.00 0.00 92 1019.1
20260503041900 43 142 0.0 0.0 0.00 0.00 0.00 91 1019.2
20260503041357 43 142 0.0 0.0 0.00 0.00 0.00 90 1018.8
20260503040855 44 136 0.0 0.0 0.00 0.00 0.00 90 1018.7
20260503040352 44 137 0.0 0.0 0.00 0.00 0.00 90 1018.7
20260503035849 44 130 0.0 0.0 0.00 0.00 0.00 90 1018.9
20260503035346 45 143 0.0 1.0 0.00 0.00 0.00 89 1018.8
20260503034843 45 131 0.0 0.0 0.00 0.00 0.00 88 1018.9
20260503034340 45 136 0.0 0.0 0.00 0.00 0.00 88 1018.8
20260503033838 46 142 0.0 0.0 0.00 0.00 0.00 87 1018.6
20260503033335 46 143 1.0 1.0 0.00 0.00 0.00 86 1018.6
20260503032833 46 153 0.0 0.0 0.00 0.00 0.00 86 1018.6
20260503032331 46 139 0.0 0.0 0.00 0.00 0.00 85 1018.5
20260503031829 46 132 0.0 0.0 0.00 0.00 0.00 85 1018.5
20260503031326 46 135 0.0 0.0 0.00 0.00 0.00 86 1018.5
20260503030822 46 138 0.0 0.0 0.00 0.00 0.00 87 1018.8
20260503030319 46 135 0.0 0.0 0.00 0.00 0.00 85 1018.5
20260503025816 46 135 0.0 0.0 0.00 0.00 0.00 86 1018.7
20260503025313 46 147 0.0 0.0 0.00 0.00 0.00 87 1018.5
20260503024810 46 148 0.0 0.0 0.00 0.00 0.00 87 1018.6
20260503024307 46 148 0.0 0.0 0.00 0.00 0.00 87 1018.5
20260503023804 46 148 0.0 0.0 0.00 0.00 0.00 85 1018.7
20260503023301 46 148 0.0 0.0 0.00 0.00 0.00 85 1018.6
20260503022757 46 148 0.0 0.0 0.00 0.00 0.00 84 1018.6
20260503022257 46 148 0.0 0.0 0.00 0.00 0.00 83 1018.6
20260503021754 46 147 0.0 0.0 0.00 0.00 0.00 83 1018.6
20260503021250 46 148 0.0 0.0 0.00 0.00 0.00 82 1018.7
20260503020748 46 146 0.0 0.0 0.00 0.00 0.00 83 1018.3
20260503020246 46 150 0.0 0.0 0.00 0.00 0.00 82 1018.6
20260503015741 46 150 0.0 0.0 0.00 0.00 0.00 83 1018.2
20260503015238 46 153 0.0 0.0 0.00 0.00 0.00 83 1018.3
20260503014734 46 165 0.0 0.0 0.00 0.00 0.00 83 1018.2
20260503014233 46 159 0.0 0.0 0.00 0.00 0.00 84 1018.0
20260503013729 46 142 0.0 0.0 0.00 0.00 0.00 84 1017.9
20260503013227 46 151 1.0 1.0 0.00 0.00 0.00 83 1018.0
20260503012724 46 154 0.0 0.0 0.00 0.00 0.00 84 1018.0
20260503012221 46 140 0.0 0.0 0.00 0.00 0.00 83 1017.8
20260503011718 47 142 0.0 0.0 0.00 0.00 0.00 84 1017.7
20260503011215 47 137 0.0 0.0 0.00 0.00 0.00 83 1017.7
20260503010710 47 141 0.0 0.0 0.00 0.00 0.00 83 1017.7
20260503010208 46 150 0.0 0.0 0.00 0.00 0.00 82 1017.7
20260503005706 47 146 0.0 0.0 0.00 0.00 0.00 82 1017.6
20260503005202 47 145 1.0 1.0 0.00 0.00 0.00 82 1017.5
20260503004658 47 141 0.0 0.0 0.00 0.00 0.00 82 1017.2
20260503004157 47 135 0.0 0.0 0.00 0.00 0.00 82 1017.5
20260503003654 47 132 0.0 0.0 0.00 0.00 0.00 81 1017.3
20260503003151 47 135 0.0 0.0 0.00 0.00 0.00 80 1017.0
20260503002648 48 129 0.0 1.0 0.00 0.00 0.00 79 1017.2
20260503002144 48 133 0.0 0.0 0.00 0.00 0.00 79 1017.1
20260503001640 48 139 0.0 0.0 0.00 0.00 0.00 78 1017.2
20260503001137 48 144 0.0 0.0 0.00 0.00 0.00 77 1017.0
20260503000635 49 147 0.0 0.0 0.00 0.00 0.00 76 1017.2
20260503000132 49 140 0.0 0.0 0.00 0.00 0.00 75 1017.0
20260502235628 49 188 1.0 1.0 0.00 0.00 0.00 75 1017.0
20260502235127 50 141 0.0 1.0 0.00 0.00 0.00 73 1016.9
20260502234622 51 148 0.0 1.0 0.00 0.00 0.00 71 1016.7
20260502234120 51 132 1.0 1.0 0.00 0.00 0.00 68 1016.7
20260502233616 51 140 0.0 1.0 0.00 0.00 0.00 71 1016.8
20260502233113 51 247 2.0 2.0 0.00 0.00 0.00 70 1016.8
20260502232608 51 260 2.0 3.0 0.00 0.00 0.00 69 1016.9
20260502232106 51 139 0.0 0.0 0.00 0.00 0.00 66 1016.9
20260502231603 51 230 2.0 2.0 0.00 0.00 0.00 64 1016.6
20260502231101 51 140 1.0 1.0 0.00 0.00 0.00 67 1016.7
20260502230559 52 232 1.0 2.0 0.00 0.00 0.00 66 1016.6
20260502230057 53 141 1.0 1.0 0.00 0.00 0.00 62 1016.6
20260502225552 53 283 2.0 2.0 0.00 0.00 0.00 62 1016.8
20260502225050 54 36 3.0 3.0 0.00 0.00 0.00 62 1016.7
20260502224545 54 249 2.0 3.0 0.00 0.00 0.00 61 1016.6
20260502224043 55 65 2.0 2.0 0.00 0.00 0.00 60 1016.5
20260502223540 55 113 1.0 1.0 0.00 0.00 0.00 60 1016.6
20260502223040 55 110 1.0 2.0 0.00 0.00 0.00 61 1016.5
20260502222536 55 227 1.0 2.0 0.00 0.00 0.00 60 1016.7
20260502222032 55 54 3.0 5.0 0.00 0.00 0.00 60 1016.4
20260502221527 55 342 2.0 3.0 0.00 0.00 0.00 61 1016.1
20260502221025 56 237 1.0 2.0 0.00 0.00 0.00 60 1016.7
20260502220520 55 39 3.0 5.0 0.00 0.00 0.00 61 1016.4
20260502220018 55 313 1.0 2.0 0.00 0.00 0.00 60 1016.5
20260502215515 55 76 2.0 2.0 0.00 0.00 0.00 62 1016.2
20260502215012 55 9 5.0 7.0 0.00 0.00 0.00 59 1016.2
20260502214509 55 240 3.0 3.0 0.00 0.00 0.00 60 1016.1
20260502214006 54 94 2.0 3.0 0.00 0.00 0.00 62 1016.5
20260502213502 55 325 6.0 9.0 0.00 0.00 0.00 61 1016.4
20260502213001 57 242 4.0 5.0 0.00 0.00 0.00 58 1016.1
20260502212459 55 2 6.0 11.0 0.00 0.00 0.00 58 1016.2
20260502211956 56 141 2.0 2.0 0.00 0.00 0.00 57 1016.1
20260502211452 55 111 1.0 2.0 0.00 0.00 0.00 60 1016.4
20260502210950 55 32 2.0 2.0 0.00 0.00 0.00 59 1015.9
20260502210446 55 136 3.0 3.0 0.00 0.00 0.00 55 1016.0
20260502205943 56 335 3.0 5.0 0.00 0.00 0.00 54 1016.1
20260502205439 56 58 3.0 5.0 0.00 0.00 0.00 53 1015.9
20260502204937 57 139 2.0 5.0 0.00 0.00 0.00 50 1016.0
20260502204434 57 216 2.0 3.0 0.00 0.00 0.00 53 1015.9
20260502203932 57 252 2.0 5.0 0.00 0.00 0.00 59 1016.0
20260502203429 57 88 2.0 2.0 0.00 0.00 0.00 56 1016.1